COSMOS 1275 DEB, 17619

Orbit data source: Space-Track

COSMOS 1275 DEB, 17619 is space debris in LEO originally from a launch on Thu, 04 Jun 1981 UTC launched from the Plesetsk Missile And Space Complex (PKMTR). Debris objects in space refer to the collection of defunct objects orbiting the Earth. Examples of debris include non-operational satellites, rocket bodies, and fragments generated from explosions, collisions, or faulty payload assembly.

Loading next visibility...
Identifier
17619, 1981-053KN
Orbit
LEO
Country
Flag of CISCIS
Related business
Manufacturer
Unknown
Mission
Spacecraft
Bus & Motor
Unknown
Mass
Unknown
Launch date (UTC)
1981-06-04 (45 years ago)
Launch vehicle
Unknown
Launch site
Plesetsk Missile And Space Complex (PKMTR)
Object type
Payload
Rocket body
Debris
Shape & HBR
Unknown shape, 0.1 m
Radar Cross Section
Small (<0.1 m²)

Expand to show TLE details & history
Last TLE update: 17 hours ago

TLE from 17 hours ago
0 COSMOS 1275 DEB
1 17619U 81053KN  26037.00662811  .00007147  00000-0  24159-2 0  9995
2 17619  82.9417 126.2733 0019427 166.7383 253.4334 14.36671659 96320
Epoch: 2026-02-06T00:09Z
TLE epoch observation values (Epoch: 2026-02-06T00:09:32.668Z)
Latitude
59.31281°
Longitude
-0.28594°
Altitude
783.579 km
Speed
7.466 km/s
True Right ascension
09h 13m 00s
True Declination
59° 09' 44"
Sunlit
Object was in full shadow at epoch
Visualization orbit readout
Latitude
Unknown
Longitude
Unknown
Altitude
Unknown
Speed
Unknown
Apparent Right ascension
Unknown
Apparent Declination
Unknown
Sunlit
N/A
Visualization observer readout
Local Sidereal Time
18:56:00
Azimuth
Unknown
Elevation
Unknown
Doppler factor
Unknown
Orbital elements
Apogee altitude
780.461 km
Perigee altitude
752.7 km
Semi-major axis
7,144.718 km
Eccentricity
0.00194
Inclination
82.9417°
RAAN
126.2733°
Arg. of periapsis
166.7383°
True anomaly
253.22017°
Mean anomaly
253.4334°
Eccentric anomaly
253.32677°
Mean motion
3.5939 °/min
Orbital period
100.17 mins
BSTAR
0.0024159
Loading maneuver chart data...
Computing Atmospheric mass density...
Loading historical data...
Loading historical data...
Loading historical data...
Loading historical data...
Loading historical data...
Loading historical data...
Loading historical data...

Documentation

Showing up to 5 results
|